[Iaude] MPEC G02: 2019 FB2 [a=0.92,e=0.36,i=11.3,H=26.5]

mpec at mpcdb1.cfa.harvard.edu mpec at mpcdb1.cfa.harvard.edu
Sun Mar 31 20:13:16 EDT 2019


M.P.E.C. 2019-G02                                Issued 2019 Apr. 1, 00:09 UT
 
     The Minor Planet Electronic Circulars contain information on unusual
         minor planets and routine data on comets.  They are published
    on behalf of Division F of the International Astronomical Union by the
          Minor Planet Center, Smithsonian Astrophysical Observatory,
                          Cambridge, MA 02138, U.S.A.

             Prepared using the Tamkin Foundation Computer Network

                              MPC at CFA.HARVARD.EDU
            URL https://www.minorplanetcenter.net/    ISSN 1523-6714


                                   2019 FB2
 
Observations:
     K19F02B* C2019 03 31.24167 09 39 47.60 +36 58 56.4          18.4 GVEG002703
     K19F02B  C2019 03 31.25315 09 40 46.64 +36 57 44.3          18.6 GVEG002703
     K19F02B  C2019 03 31.25888 09 41 16.14 +36 57 08.6          18.6 GVEG002703
     K19F02B KC2019 03 31.29381 09 44 16.96 +36 51 29.6          18.5 GVEG002V01
     K19F02B KC2019 03 31.29681 09 44 31.92 +36 51 08.4          18.6 GVEG002V01
     K19F02B KC2019 03 31.29980 09 44 46.89 +36 50 47.5          18.9 GVEG002V01
     K19F02B KC2019 03 31.30280 09 45 01.67 +36 50 26.1          18.8 GVEG002V01
     K19F02B  C2019 03 31.30408 09 45 03.71 +36 51 54.5          18.4 GVEG002I52
     K19F02B  C2019 03 31.30422 09 45 04.40 +36 51 53.3          18.1 GVEG002I52
     K19F02B  C2019 03 31.30436 09 45 05.10 +36 51 52.4          18.0 GVEG002I52
     K19F02B  C2019 03 31.30450 09 45 05.79 +36 51 51.3          18.6 GVEG002I52
     K19F02B KC2019 03 31.30578 09 45 16.46 +36 50 05.1          18.3 GVEG002V01
     K19F02B  C2019 03 31.38233 09 51 17.79 +36 41 35.6          18.6 GVEG002I52
     K19F02B  C2019 03 31.38246 09 51 18.45 +36 41 34.6          18.9 GVEG002I52
     K19F02B  C2019 03 31.38261 09 51 19.12 +36 41 33.8          18.4 GVEG002I52
     K19F02B  C2019 03 31.38275 09 51 19.81 +36 41 31.7          17.8 GVEG002I52
     K19F02B  C2019 03 31.51464 10 01 55.46 +36 30 25.1          18.7 RrEG002P93
     K19F02B  C2019 03 31.51695 10 02 04.37 +36 30 08.9          18.7 RrEG002P93
     K19F02B  C2019 03 31.51926 10 02 13.15 +36 29 53.1          18.8 RrEG002P93
     K19F02B KC2019 03 31.80521110 19 28.08 +35 54 26.6          18.9 GVEG002L01
     K19F02B KC2019 03 31.80540610 19 28.63 +35 54 25.5          19.0 GVEG002L01
     K19F02B KC2019 03 31.80758410 19 34.96 +35 54 11.5          18.7 GVEG002L01
     K19F02B KC2019 03 31.80817710 19 36.67 +35 54 07.6          19.0 GVEG002L01
     K19F02B KC2019 03 31.80877110 19 38.38 +35 54 03.9          19.1 GVEG002L01
 
Observer details:
703 Catalina Sky Survey.  Observer R. A. Kowalski.  Measurers B. M. Africano,
    E. J. Christensen, G. A. Farneth, D. C. Fuls, A. R. Gibbs, A. D. Grauer,
    H. Groeller, R. A. Kowalski, S. M. Larson, G. J. Leonard, T. A. Pruyne,
    R. L. Seaman, F. C. Shelly.  0.68-m Schmidt + 10K CCD.
I52 Steward Observatory, Mt. Lemmon Station.  Observer H. Groeller.
    Measurers B. M. Africano, E. J. Christensen, G. A. Farneth, D. C. Fuls,
    A. R. Gibbs, A. D. Grauer, H. Groeller, R. A. Kowalski, S. M. Larson,
    G. J. Leonard, T. A. Pruyne, R. L. Seaman, F. C. Shelly.  1.0-m reflector
    + CCD.
L01 Visnjan Observatory, Tican.  Observer K. Korlevic.  1.0-m f/2.9 reflector
    + CCD.
P93 Space Tracking and Communications Center, JAXA.  Observers S. Urakawa,
    T. Nimura.  1.0-m f/3.0 reflector + CCD.
V01 Mountainville Observatory, Alpine.  Observer B. Sheets.  0.35-m
    Schmidt-Cassegrain + CCD.
 
Orbital elements:
2019 FB2                                                 Earth MOID = 0.0006 AU
Epoch 2019 Apr. 27.0 TT = JDT 2458600.5                 MPC
M 113.72107              (2000.0)            P               Q
n   1.11042871     Peri.  237.43436     +0.41234921     -0.91058374
a   0.9235823      Node   188.36127     +0.88753992     +0.40855160
e   0.3609248      Incl.   11.25410     +0.20552620     +0.06263261
P   0.89           H   26.5           G   0.15           U   7
Residuals in seconds of arc
190331 703  1.4+  0.3-    190331 I52  1.0-  0.2-    190331 P93  0.3-  0.5+
190331 703 (4.8-  0.8-)   190331 I52  0.8-  0.0     190331 P93  0.5+  0.1-
190331 703 (4.6-  0.3+)   190331 I52  0.8-  0.1-    190331 P93  0.0   0.3-
190331 V01  0.4-  0.3+    190331 V01  0.3+  0.3+    190331 L01  0.1-  0.2+
190331 V01  0.4-  0.0     190331 I52  0.3-  0.2+    190331 L01  0.3-  0.3+
190331 V01  0.8+  0.2+    190331 I52  0.4+  0.3+    190331 L01  0.1+  0.0
190331 V01  0.3-  0.0     190331 I52  0.1+  0.7+    190331 L01  0.0   0.2-
190331 I52  1.0-  0.0     190331 I52  0.6+  0.2-    190331 L01  0.0   0.2-

Ephemeris:
2019 FB2                 a,e,i = 0.92, 0.36, 11                  q = 0.5902
Date    TT    R. A. (2000) Decl.     Delta      r     Elong.  Phase     V
2019 03 02    00 03 59.5 -25 30 15   0.1993  0.8153    25.3   148.7    30.7
...
2019 03 17    00 16 07.9 -26 55 30   0.08780 0.9170    26.4   151.2    29.7
...
2019 03 25    00 39 37.6 -24 47 49   0.03330 0.9675    27.0   152.1    27.9
...
2019 03 31    09 14 22.1 +37 12 04   0.0093381.0032   117.8    61.7    18.6
2019 04 01    10 28 27.0 +35 34 32   0.01530 1.0089   129.7    49.6    19.3
2019 04 02    10 58 40.4 +34 01 55   0.02172 1.0146   134.2    45.0    19.9
...
2019 04 08    11 42 06.1 +30 40 22   0.06179 1.0475   137.5    40.2    22.1
...
2019 04 16    11 54 15.5 +29 02 55   0.1165  1.0877   134.2    41.4    23.6
...
2019 05 01    12 06 31.3 +26 23 30   0.2223  1.1519   125.9    45.1    25.3

A. U. Tomatic                (C) Copyright 2019 MPC           M.P.E.C. 2019-G02



More information about the Iaude mailing list